1782654299665841,0.227942,1.011267,9.750832
1782654319441258,0.237518,1.135760,9.803501
1782654339216623,0.290189,1.130972,9.789136
1782654358992039,0.180060,1.054361,9.765195
1782654378736883,0.242307,1.044785,9.731678
1782654398512300,0.184848,1.241101,9.741255
1782654418318185,0.093872,1.226736,9.813077
1782654438093602,0.113025,1.063937,9.698160
1782654457868966,0.184848,1.097455,9.621550
1782654477644383,0.271036,1.308136,9.631126
1782654497590425,0.184848,1.346441,9.578455
1782654517365841,0.232730,0.996903,9.655067
1782654537141206,0.223154,0.925080,9.650278
1782654556916623,0.381164,1.322500,9.607185
1782654576691987,0.280612,1.322500,9.760407
1782654596436883,0.290189,1.092667,9.755619
1782654616212248,0.409894,1.107031,9.832231
1782654635987664,0.457775,1.288983,9.889688
1782654655763029,0.390741,1.049573,9.942359
1782654675538445,0.290189,1.030420,9.908841
1782654695313810,0.419470,1.470934,9.779560
1782654715089227,0.419470,1.150125,10.004605
1782654734895112,0.084296,0.446260,9.841806
1782654754670529,-0.035409,0.307402,9.698160
1782654774445893,0.113025,1.111820,9.611974
1782654794221310,0.045990,0.949021,9.923206
1782654813996675,-0.083291,0.719187,9.765195
1782654833772091,-0.006680,0.810163,9.473115
1782654853547456,0.136966,0.977750,9.382139
1782654873322873,0.093872,1.135760,9.607185
1782654893098237,0.031626,1.288983,9.544938
1782654912873654,-0.092867,1.279406,9.377352
1782654932618498,-0.207784,1.107031,9.463539
1782654952393914,-0.035409,1.317712,9.750832
1782654972169279,-0.121596,1.245889,9.760407
1782654991944695,-0.140749,1.250677,9.635915
1782655011720060,-0.107232,1.470934,9.750832
1782655031525998,-0.121596,1.643309,9.904054
1782655051301362,0.017261,1.921025,9.726891
1782655071046258,0.117813,1.729497,9.726891
1782655090821623,0.103449,1.456570,9.669432
1782655110597039,0.098661,1.628945,9.779560
1782655130372404,-0.404100,1.566698,9.904054
1782655150178341,-0.480711,1.810896,9.726891
1782655169953706,-0.222149,1.901872,9.688584
1782655189729123,0.290189,2.007213,9.602396
1782655209473966,0.213577,2.222681,9.123577
1782655229249383,0.754644,2.040730,9.109212
1782655249024748,0.486505,2.002424,9.085272
1782655268800164,-0.231725,1.849202,9.391716
1782655288575529,-1.581997,1.154913,10.325415
1782655308350945,-0.964319,1.997636,10.081217
1782655328126310,-0.231725,1.643309,9.468328
1782655347932248,0.740279,2.170011,8.874590
1782655367707612,0.180060,2.390268,9.607185
1782655387513550,-0.820673,1.695980,9.741255
1782655407258393,-0.150326,1.973695,9.712525
1782655427033810,0.400317,2.687137,9.444386
1782655446809175,-0.040197,2.347175,9.674219
1782655466584591,-0.049773,1.863567,9.621550
1782655486359956,-0.207784,1.298559,9.616761
1782655506286206,-0.169478,2.170011,9.631126
1782655526031050,0.069931,2.562643,9.573668
1782655545806466,-0.044985,2.136494,9.554516
1782655565612352,-0.289183,2.141282,9.520997
1782655585387768,0.141754,2.294504,9.348622
1782655605132612,-0.083291,2.016789,9.688584
1782655624908029,-0.145537,2.270563,9.626337
1782655644683393,0.294977,2.146070,9.430021
1782655664458810,-0.001891,2.260987,9.559303
1782655684234175,0.213577,1.858778,9.693373
1782655704009591,-0.131173,1.906660,9.415657
1782655723784956,-0.298760,2.409421,9.453962
1782655743529852,0.218366,2.260987,9.525785
1782655763305268,0.065143,2.318445,9.458752
1782655783111154,-0.241301,2.399845,9.463539
1782655802886518,0.275824,1.959330,9.463539
1782655822661935,-0.116808,2.112553,9.554516
1782655842437300,-0.021044,2.505185,9.492269
1782655862243237,0.026838,2.217893,9.655067
1782655882018602,0.146543,2.059883,9.726891
1782655901794018,-0.327489,1.973695,9.698160
1782655921569383,-0.207784,2.088612,9.549726
1782655941314279,0.127390,2.083824,9.592820
1782655961089643,0.194425,2.150859,9.564092
1782655980865060,-0.332277,2.237046,9.650278
1782656000640425,0.012473,2.083824,9.415657
1782656020415841,0.251883,2.055094,9.401293
1782656040191206,-0.097655,1.858778,9.549726
1782656059997143,-0.389735,2.251410,9.444386
1782656079772508,0.448199,2.241834,9.348622
1782656099547925,0.577480,2.155647,9.506634
1782656119323289,-0.523805,2.237046,9.492269
1782656139129227,-0.576475,1.873143,9.611974
1782656158874070,0.749856,1.916237,9.535362
1782656178649487,0.390741,2.222681,9.511421
1782656198455373,0.113025,2.222681,9.655067
1782656218230789,-0.341854,2.299293,9.774773
1782656238006154,1.755377,1.681615,9.042177
1782656257812091,3.148743,1.624157,9.382139
1782656277587456,-2.079969,1.557122,8.304795
1782656297393393,2.468819,0.637788,7.356732
1782656317138237,-2.989727,2.289716,7.979197
1782656336883133,0.510446,1.078302,8.572934
1782656356658498,-1.830983,2.213105,8.228185
1782656376433914,-0.332277,1.269830,8.927261
1782656396209279,-0.562111,2.538702,9.032601
1782656415984695,-0.298760,2.079036,9.276799
1782656435760060,-0.011468,2.040730,9.348622
1782656455535477,0.089084,2.079036,9.626337
1782656475280320,-0.231725,2.088612,9.755619
1782656495055737,-0.495076,2.208317,9.497056
1782656514869748,-0.313124,2.591372,9.659856
1782656534645164,-0.241301,1.681615,9.477903
1782656554390008,-1.352163,1.992848,9.468328
1782656574165425,0.663668,1.241101,9.530575
1782656593940789,0.218366,1.423052,9.688584
1782656613716206,0.328494,1.949754,9.650278
1782656633491570,0.189636,1.877931,9.602396
1782656653266987,-0.279607,1.882719,9.583244
1782656673042352,0.175272,1.930601,9.487480
1782656692817768,0.002897,1.978483,9.588033
1782656712623654,-0.169478,1.959330,9.669432
1782656732399070,-0.135961,1.997636,9.655067
1782656752143914,0.007685,2.012001,9.583244
1782656771919331,-0.073714,1.921025,9.310316
1782656791725216,-0.370583,2.050306,9.420445
1782656811470112,-0.274819,1.820473,9.746042
1782656831245477,-0.317913,1.892296,9.717314
1782656851051414,0.084296,1.997636,9.501844
1782656870826779,-0.107232,1.806108,9.640702
1782656890602195,-0.337065,1.877931,9.626337
1782656910377560,-0.341854,2.165223,9.487480
1782656930152977,-0.389735,1.734285,9.520997
1782656949928341,-0.571687,1.772591,9.688584
1782656969703758,0.017261,1.782167,9.712525
1782656989479123,-0.064138,1.590639,9.631126
1782657009254539,-0.375371,1.992848,9.659856
1782657029029904,-0.523805,2.107764,9.607185
1782657048805320,-0.495076,2.045518,9.717314
1782657068580685,-0.274819,1.772591,9.760407
1782657088356102,-0.298760,1.763014,9.592820
1782657108131466,-0.193419,1.686403,9.664643
1782657127906883,-0.188631,2.102977,9.506634
1782657147682248,-0.370583,1.777379,9.611974
1782657167488185,-0.681816,1.992848,9.635915
1782657187263550,-0.308336,1.815685,9.573668
1782657207038966,-0.121596,1.748650,9.626337
1782657226814331,-0.605204,1.763014,9.626337
1782657246620268,-0.581263,1.921025,9.444386
1782657266395633,-0.590840,2.040730,9.683796
1782657286171050,-0.222149,1.801320,9.592820
1782657305976935,-0.332277,1.695980,9.564092
1782657325752352,-0.514229,1.925813,9.669432
1782657345497195,-0.542958,1.916237,9.611974
1782657365272612,-0.394524,1.863567,9.616761
1782657385078498,-0.293972,1.739073,9.726891
1782657404853914,-0.442406,1.849202,9.607185
1782657424629279,-0.456770,2.213105,9.559303
1782657444404695,-0.260454,2.035942,9.564092
1782657464210581,-0.183843,1.710344,9.607185
1782657483985998,-0.255666,2.050306,9.611974
1782657503761362,0.007685,2.213105,9.568879
1782657523649227,-0.428041,1.442205,9.640702
1782657543424591,0.122602,1.815685,9.554516
1782657563230529,-0.164690,2.347175,9.592820
1782657583005893,-0.040197,2.064671,9.444386
1782657602750789,0.069931,1.992848,9.343834
1782657622526154,0.529598,1.921025,9.449174
1782657642301570,0.419470,2.399845,9.406080
1782657662046414,0.213577,2.433362,9.362988
1782657681821831,-0.064138,1.317712,9.578455
1782657701627716,-0.126385,1.767803,9.746042
1782657721403133,0.328494,1.949754,9.688584
1782657741178498,0.060355,2.462091,9.655067
1782657760953914,0.285400,2.064671,9.602396
1782657780729279,0.170484,2.012001,9.702950
1782657800504695,-0.322701,1.399111,9.516210
1782657820280060,-0.198208,1.978483,9.386929
1782657840085998,0.615786,2.208317,9.406080
1782657859861362,0.414682,2.126918,9.444386
1782657879636779,-0.016256,2.452515,9.468328
1782657899412143,0.079508,2.031154,9.406080
1782657919157039,-0.456770,1.964119,9.530575
1782657938932404,-0.519017,2.246622,9.683796
1782657958707820,0.031626,2.002424,9.540151
1782657978513706,-0.092867,2.189164,9.444386
1782657998289123,0.242307,2.126918,9.631126
1782658018064487,-0.054562,2.093400,9.707737
1782658037839904,-0.495076,1.968907,9.688584
1782658057645789,0.036414,2.284928,9.736466
1782658077421206,0.065143,2.586584,9.645491
1782658097196570,-0.011468,2.366327,9.171459
1782658116971987,0.208789,2.160435,9.300740
1782658136716831,0.031626,2.509973,9.506634
1782658156492248,0.122602,2.548279,9.544938
1782658176298133,0.357223,2.160435,9.391716
1782658196073550,0.117813,2.122129,9.200189
1782658215848914,0.237518,2.284928,9.386929
1782658235593810,0.486505,2.198740,9.640702
1782658255369175,0.204001,2.385480,9.540151
1782658275144591,0.045990,2.471668,9.348622
1782658294919956,-0.456770,2.418998,9.525785
1782658314695373,0.227942,2.141282,9.540151
1782658334470737,0.136966,2.548279,9.391716
1782658354215633,-0.509440,2.390268,9.401293
1782658373990998,-0.006680,2.318445,9.535362
1782658393796935,-0.303548,2.380692,9.640702
1782658413541779,-0.183843,2.342386,9.482693
1782658433317195,0.069931,2.414209,9.425234
1782658453153602,-0.164690,2.256199,9.262434
1782658472929018,0.304553,2.418998,9.487480
1782658492704383,0.716338,2.543491,10.028546
1782658512479800,0.290189,1.944966,8.237761
1782658532345581,2.483183,1.250677,7.754152
1782658552090477,-4.306481,3.477189,10.200921
1782658571865841,-2.788622,2.615314,7.845128
1782658591671779,1.329227,2.299293,11.278266
1782658611447143,0.338071,2.821206,10.516942
1782658631253081,-0.135961,2.031154,9.109212
1782658651028445,0.381164,1.930601,9.611974
1782658670803862,-0.428041,2.553067,9.272012
1782658690579227,-0.021044,2.342386,9.377352
1782658710354643,-0.064138,2.332810,9.487480
1782658730130008,0.031626,2.342386,9.506634
1782658749905425,0.237518,1.868355,9.372563
1782658769680789,0.687609,2.217893,9.473115
1782658789425685,0.735491,1.839625,9.358198
1782658809201050,0.266248,2.897817,9.386929
1782658828976466,0.984477,2.059883,9.372563
1782658848751831,0.184848,2.840359,9.362988
1782658868527248,0.476928,2.189164,9.386929
1782658888302612,0.184848,2.567432,9.463539
1782658908047508,0.247095,2.371116,9.520997
1782658927822873,-0.088079,2.428574,9.449174
1782658947598289,-0.179055,2.409421,9.367775
1782658967373654,0.036414,2.380692,9.554516
1782658987118550,-0.092867,2.648831,9.520997
1782659006893914,0.012473,2.476456,9.420445
1782659026669331,0.146543,2.155647,9.607185
1782659046444695,-0.011468,2.457303,9.712525
1782659066189591,0.160907,2.323234,9.506634
1782659085964956,-0.107232,2.605737,9.343834
1782659105770893,0.117813,2.351963,9.449174
1782659125546258,-0.202996,2.366327,9.372563
1782659145352195,0.017261,2.500397,9.267223
1782659165127560,0.098661,2.490821,9.415657
1782659184902977,-0.054562,2.524338,9.329470
1782659204678341,0.065143,2.361539,9.439598
1782659224484279,-0.102444,2.452515,9.453962
1782659244229123,-0.059350,2.529126,9.406080
1782659264004539,0.002897,2.423786,9.549726
1782659283779904,-0.279607,2.591372,9.525785
1782659303555320,0.036414,2.251410,9.406080
1782659323330685,-0.207784,2.395056,9.372563
1782659343136623,0.036414,2.490821,9.477903
1782659362881466,-0.140749,2.505185,9.559303
1782659382656883,0.036414,2.337598,9.482693
1782659402462768,-0.025833,2.433362,9.439598
1782659422238185,-0.107232,2.418998,9.329470
1782659442044070,-0.025833,2.433362,9.262434
1782659461819487,0.079508,2.399845,9.353411
1782659481625373,0.012473,2.524338,9.410870
1782659501370268,-0.155114,2.404633,9.367775
1782659521145633,-0.068926,2.265775,9.530575
1782659541111154,-0.107232,2.251410,9.568879
1782659560856050,0.089084,2.514762,9.492269
1782659580631466,0.084296,2.500397,9.487480
1782659600406831,-0.193419,2.486032,9.482693
1782659620182248,-0.059350,2.232258,9.520997
1782659639957612,0.026838,2.280140,9.535362
1782659659733029,-0.011468,2.390268,9.420445
1782659679508393,0.022049,2.524338,9.449174
1782659699283810,-0.001891,2.351963,9.492269
1782659719028654,-0.044985,2.227470,9.415657
1782659738804070,-0.112020,2.366327,9.305529
1782659758609956,0.146543,2.361539,9.382139
1782659778385373,-0.049773,2.375904,9.377352
1782659798160737,-0.169478,2.490821,9.396504
1782659817936154,0.026838,2.380692,9.473115
1782659837742039,-0.083291,2.366327,9.516210
1782659857486935,0.041202,2.375904,9.458752
1782659877262300,-0.131173,2.351963,9.525785
1782659897037716,-0.064138,2.385480,9.568879
1782659916813081,-0.064138,2.347175,9.468328
1782659936588498,-0.025833,2.323234,9.525785
1782659956333341,-0.068926,2.318445,9.511421
1782659976108758,-0.073714,2.260987,9.525785
1782659995914643,-0.140749,2.289716,9.425234
1782660015690060,0.012473,2.375904,9.382139
1782660035465425,0.017261,2.390268,9.420445
1782660055240841,0.036414,2.337598,9.430021
1782660075046727,-0.121596,2.241834,9.430021
1782660094822091,-0.217360,2.428574,9.501844
1782660114597508,-0.021044,2.342386,9.420445
1782660134342404,0.026838,2.433362,9.391716
1782660154117768,0.036414,2.361539,9.444386
1782660173923654,-0.169478,2.347175,9.482693
1782660193668550,-0.116808,2.304081,9.468328
1782660213443966,0.108237,2.409421,9.554516
1782660233219331,-0.078503,2.442939,9.568879
1782660252994748,-0.059350,2.371116,9.449174
1782660272800633,0.036414,2.351963,9.487480
1782660292575998,0.026838,2.332810,9.554516
1782660312381935,-0.001891,2.351963,9.434811
1782660332126779,0.045990,2.299293,9.382139
1782660351902195,0.017261,2.414209,9.391716
1782660371677560,0.007685,2.299293,9.353411
1782660391452977,-0.040197,2.280140,9.343834
1782660411258862,-0.121596,2.409421,9.415657
1782660431003758,-0.049773,2.414209,9.425234
1782660450779123,-0.016256,2.418998,9.420445
1782660470554539,-0.040197,2.471668,9.487480
1782660490299435,0.050779,2.318445,9.430021
1782660510044279,-0.011468,2.280140,9.506634
1782660529819695,0.213577,2.328022,9.520997
1782660549694331,-0.346642,2.356751,9.549726
1782660569469748,-0.198208,2.313657,9.616761
1782660589275633,-0.198208,2.318445,9.506634
1782660609081518,-0.485499,2.270563,9.458752
1782660628856935,0.510446,2.428574,9.434811
1782660648571310,0.132178,2.447727,9.339046
1782660668316154,0.352435,2.366327,9.348622
1782660688091570,0.285400,2.390268,9.386929
1782660707927977,0.376376,2.404633,9.272012
1782660727733862,1.290922,2.117341,9.128366
1782660747509279,-2.113487,2.653619,10.042912
1782660767254175,-3.205196,2.878664,10.502579
1782660787029539,3.996254,1.332077,8.529840
1782660806804956,3.900490,1.686403,9.664643
1782660826580320,-2.367261,2.921758,8.175514
1782660846355737,-1.821407,2.854724,8.098903
1782660866131102,1.243040,1.715132,10.454697
1782660885906518,0.769008,2.083824,10.181768
1782660905681883,-0.370583,2.390268,9.133153
1782660925426779,0.127390,2.126918,9.372563
1782660945202143,-0.040197,2.457303,9.492269
1782660964977560,-0.016256,2.265775,9.511421
1782660984752925,-0.212572,2.433362,9.396504
1782661004558862,0.022049,2.050306,9.415657
1782661024334227,-0.542958,3.027099,9.655067
1782661044109643,-1.189364,2.313657,9.549726
1782661063854487,-0.135961,2.864300,9.535362
1782661083629904,-0.897284,2.624890,9.453962
1782661103435789,0.625362,2.428574,9.564092
1782661123211206,0.242307,2.399845,9.487480
1782661142986570,0.213577,2.193952,9.497056
1782661162761987,0.204001,2.232258,9.583244
1782661182537352,-0.097655,2.246622,9.420445
1782661202312768,0.002897,2.246622,9.473115
1782661222088133,-0.068926,2.390268,9.386929
1782661241863550,0.271036,2.342386,9.415657
1782661261669435,-0.044985,2.227470,9.477903
1782661281444800,0.074720,2.265775,9.487480
1782661301220216,-0.064138,2.289716,9.640702
1782661320995581,0.189636,2.284928,9.564092
1782661340770998,-0.159902,2.323234,9.568879
1782661360546362,0.342859,2.170011,9.482693
1782661380321779,-0.006680,2.265775,9.573668
1782661400097143,0.170484,2.275352,9.434811
1782661419842039,0.084296,2.241834,9.382139
1782661439617456,0.017261,2.366327,9.415657
1782661459423341,0.017261,2.356751,9.396504
1782661479198706,0.156119,2.184376,9.396504
1782661498943602,0.079508,2.241834,9.439598
1782661518719018,0.093872,2.213105,9.453962
1782661538524904,0.189636,2.308869,9.430021
1782661558353393,-0.021044,2.323234,9.573668
1782661578159331,0.012473,2.375904,9.473115
1782661597934695,-0.040197,2.409421,9.477903
1782661617710112,-0.088079,2.337598,9.391716
1782661637485477,0.041202,2.198740,9.463539
1782661657260893,0.050779,2.146070,9.573668
1782661677005737,0.089084,2.337598,9.458752
1782661696781154,0.045990,2.438150,9.415657
1782661716556518,0.007685,2.380692,9.434811
1782661736331935,-0.040197,2.280140,9.554516
1782661756137820,0.026838,2.217893,9.554516
1782661775913237,-0.025833,2.318445,9.525785
1782661795688602,-0.116808,2.375904,9.482693
1782661815464018,-0.059350,2.299293,9.549726
1782661835239383,0.065143,2.189164,9.554516
1782661855014800,-0.016256,2.280140,9.458752
1782661874790164,-0.025833,2.347175,9.434811
1782661894535060,0.012473,2.213105,9.468328
1782661914310425,0.136966,2.102977,9.559303
1782661934085841,-0.083291,2.328022,9.573668
1782661953861206,-0.126385,2.356751,9.473115
1782661973636623,0.084296,2.122129,9.430021
1782661993381518,0.055567,2.232258,9.535362
1782662013156883,0.065143,2.227470,9.487480
1782662032932300,0.041202,2.366327,9.396504
1782662052707664,0.050779,2.337598,9.401293
1782662072483081,0.132178,2.213105,9.420445
1782662092258445,-0.088079,2.184376,9.511421
1782662112033862,-0.236513,2.112553,9.449174
1782662131809227,-0.107232,2.117341,9.473115
1782662151584643,0.227942,1.997636,9.343834
1782662171360008,-0.040197,1.968907,9.564092
1782662191135425,-0.150326,1.968907,9.544938
1782662210941310,-0.135961,2.026365,9.362988
1782662230686206,0.366800,1.916237,9.420445
1782662250461570,0.065143,2.093400,9.702950
1782662270236987,-0.006680,1.868355,9.769983
1782662289981831,0.136966,1.657674,9.525785
1782662309757248,0.069931,1.882719,9.635915
1782662329563133,0.175272,1.868355,9.736466
1782662349338550,0.251883,1.820473,9.525785
1782662369113914,0.127390,2.055094,9.487480
1782662388889331,0.347647,2.141282,9.564092
1782662408664695,0.127390,1.983271,9.621550
1782662428440112,0.170484,1.940178,9.588033
1782662448245998,0.232730,1.897084,9.631126
1782662468021362,0.342859,2.007213,9.564092
1782662487796779,0.419470,1.782167,9.683796
1782662507572143,0.309341,1.782167,9.755619
1782662527347560,-0.021044,1.767803,9.626337
1782662547122925,0.204001,1.657674,9.477903
1782662567016570,0.266248,1.887508,9.655067
1782662586791987,0.414682,1.849202,9.688584
1782662606567352,0.275824,1.940178,9.535362
1782662626342768,0.146543,1.954542,9.535362
1782662646087612,0.261459,1.791744,9.626337
1782662665863029,0.156119,1.892296,9.650278
1782662685638393,0.251883,1.743862,9.568879
1782662705383289,-0.815885,2.112553,9.291164
1782662725158654,0.304553,1.839625,9.453962
1782662744903550,0.362011,1.820473,9.554516
1782662764678914,0.017261,1.825261,9.717314
1782662784484852,0.136966,1.839625,9.597609
1782662804260216,-0.174267,1.844414,9.525785
1782662824035633,0.400317,1.921025,9.425234
1782662843810998,-0.140749,1.786955,9.511421
1782662863616935,0.481716,1.849202,9.520997
1782662883361779,-0.107232,2.031154,9.564092
1782662903137195,1.037147,1.844414,9.425234
1782662922912560,0.366800,1.753438,9.425234
1782662942687977,0.467352,1.695980,9.549726
1782662962463341,-0.389735,1.959330,9.765195
1782662982238758,0.936595,1.605004,9.152307
1782663002014123,0.117813,1.652886,8.764462
1782663021789539,1.831988,2.270563,10.818600
1782663041564904,2.722593,2.356751,11.340512
1782663061309800,-1.898018,1.542757,7.418978
1782663081085164,-1.682549,1.873143,7.524319
1782663100860581,1.717071,1.605004,10.990974
1782663120635945,1.424991,1.341653,10.378084
1782663140411362,-0.519017,2.294504,9.176248
1782663160186727,-0.279607,2.328022,9.372563
1782663179992664,0.520022,1.619368,9.693373
1782663199737508,0.352435,1.873143,9.779560
1782663219512925,0.213577,1.868355,9.731678
1782663239288289,0.026838,2.035942,9.664643
1782663259033185,0.745067,1.279406,9.391716
1782663278808550,1.343592,1.557122,9.516210
1782663298583966,-0.935590,2.012001,9.497056
1782663318359331,-0.174267,1.451782,9.492269
1782663338134748,-0.135961,2.064671,9.626337
1782663357910112,-0.298760,2.055094,9.597609
1782663377685529,0.601421,1.949754,9.592820
1782663397460893,0.429046,1.954542,9.554516
1782663417236310,0.136966,1.906660,9.516210
1782663437011675,0.204001,1.858778,9.520997
1782663456756570,0.036414,1.877931,9.645491
1782663476531935,0.299765,1.882719,9.549726
1782663496307352,0.294977,1.997636,9.583244
1782663516082716,0.481716,1.863567,9.463539
1782663535858133,-0.073714,1.930601,9.477903
1782663555633498,0.084296,1.796532,9.525785
1782663575502352,0.036414,2.050306,9.477903
1782663595277716,0.069931,1.944966,9.616761
1782663615083654,0.213577,1.901872,9.492269
1782663634859018,-0.116808,1.954542,9.544938
1782663654634435,0.271036,1.897084,9.463539
1782663674409800,0.304553,1.940178,9.626337
1782663694185216,0.328494,1.734285,9.650278
1782663713930060,0.132178,1.806108,9.530575
1782663733705477,0.208789,1.863567,9.540151
1782663753450320,0.223154,1.892296,9.592820
1782663773225737,0.304553,1.777379,9.645491
1782663793001102,-0.011468,1.748650,9.611974
1782663812776518,0.026838,1.868355,9.712525
1782663832582404,-0.006680,1.777379,9.564092
1782663852357820,-0.021044,1.810896,9.640702
1782663872133185,0.103449,1.830049,9.511421
1782663891939123,0.189636,1.978483,9.549726
1782663911745008,0.132178,1.887508,9.525785
1782663931520425,0.333282,1.657674,9.492269
1782663951295789,0.227942,1.729497,9.621550
1782663971101727,0.213577,1.806108,9.549726
1782663990877091,0.285400,1.873143,9.434811
1782664010652508,0.113025,1.882719,9.592820
1782664030458393,0.151331,1.719921,9.659856
1782664050233810,0.141754,1.767803,9.645491
1782664069978654,0.223154,1.911448,9.544938
1782664089754070,0.251883,1.892296,9.544938
1782664109529435,0.304553,1.782167,9.635915
1782664129304852,0.151331,1.791744,9.530575
1782664149080216,0.060355,1.944966,9.372563
1782664168855633,0.333282,1.815685,9.339046
1782664188630998,0.285400,1.786955,9.343834
1782664208406414,0.108237,1.959330,9.353411
1782664228181779,0.352435,1.743862,9.386929
1782664247957195,0.438623,1.763014,9.803501
1782664267732560,0.433834,1.887508,9.358198
1782664287507977,0.294977,2.031154,9.319894
1782664307283341,0.510446,2.012001,9.453962
1782664327028237,0.644515,2.069459,9.516210
1782664346803602,0.874349,1.801320,9.679008
1782664366579018,0.797738,1.839625,9.506634
1782664386354383,0.826467,2.117341,9.635915
1782664406160320,1.276557,1.767803,9.439598
1782664425935685,1.080241,1.672039,9.559303
1782664445711102,0.960536,1.035208,10.004605
1782664465486466,0.879137,2.031154,9.152307
1782664485231362,1.587790,1.858778,9.319894
1782664505006727,1.520755,1.763014,8.965567
1782664524812664,1.520755,1.959330,9.090059
1782664544557508,1.559061,1.858778,9.276799
1782664564332925,1.812835,1.815685,9.166672
1782664584223602,1.583002,1.992848,8.999084
1782664603968498,1.171217,2.035942,8.898531
1782664623743862,1.142488,1.801320,9.037390
1782664643488758,0.587057,1.332077,9.415657
1782664663264123,0.821678,1.600216,9.482693
1782664683070060,1.022783,1.581063,9.937571
1782664702845425,0.941383,1.293771,10.172193
1782664722651362,0.055567,2.414209,9.937571
1782664742426727,0.290189,1.964119,9.712525
1782664762202143,0.745067,1.633733,10.018970
1782664781977508,1.875082,0.791010,10.469060
1782664801752925,0.515234,0.403166,10.679741
1782664821528289,0.419470,0.896351,10.296685
1782664841303706,0.840831,1.126184,10.038122
1782664861109591,0.979689,1.150125,9.851383
1782664880885008,1.195158,1.130972,9.793924
1782664900660373,0.342859,0.795799,9.578455
1782664920466310,-0.226937,1.533181,9.516210
1782664940241675,0.342859,1.389535,9.549726